P/2019 M2 ( ATLAS )

Japanese version
Home page
Updated on August 25, 2024

---------------------------------------------------------------------

* Profile

Discovery Date June 29, 2019
Magnitude 18.3 mag
Discoverer Asteroid Terrestrial-Impact Last Alert System (ATLAS) search program

* Pictures

* Orbital Elements

                    Epoch = 2019 June  6.0 TT
     T = 2019 June 22.66928 TT        Peri. = 332.51891
     e = 0.6486817                    Node  = 307.60604 2000.0
     q = 1.0633976 AU                 Incl. =  12.28094
       a =  3.0268783 AU   n = 0.18715939   P =   5.27 years

* Magnitudes Graph

        H = 18.5  G = 0.15

---------------------------------------------------------------------

The orbital elements are printed on CBET 5433.
The magnitudes graphs are made with Comet for Windows.

---------------------------------------------------------------------

Copyright(C) Seiichi Yoshida (comet@aerith.net). All rights reserved.